| time (UTC) | temp F | wind direction | speed MPH | gust MPH | rain 1hr in | rain 24hr in | rain mn in | humidity % | barometer mb |
| 20260506170903 | 56 | 352 | 8.0 | 13.0 | 0.01 | 1.16 | 0.79 | 84 | 1008.4 |
| 20260506170004 | 56 | 9 | 6.0 | 14.0 | 0.00 | 1.20 | 0.78 | 82 | 1008.3 |
| 20260506165403 | 56 | 3 | 5.0 | 12.0 | 0.00 | 1.21 | 0.78 | 83 | 1008.2 |
| 20260506164503 | 56 | 352 | 4.0 | 11.0 | 0.00 | 1.23 | 0.78 | 84 | 1008.2 |
| 20260506163603 | 56 | 9 | 4.0 | 7.0 | 0.00 | 1.24 | 0.78 | 86 | 1008.0 |
| 20260506162917 | 56 | 352 | 3.0 | 8.0 | 0.00 | 1.26 | 0.78 | 86 | 1007.8 |
| 20260506161803 | 56 | 300 | 3.0 | 9.0 | 0.00 | 1.27 | 0.78 | 86 | 1007.9 |
| 20260506160903 | 56 | 300 | 6.0 | 10.0 | 0.00 | 1.28 | 0.78 | 86 | 1007.6 |
| 20260506160008 | 57 | 356 | 7.0 | 11.0 | 0.00 | 1.28 | 0.78 | 85 | 1007.2 |
| 20260506155617 | 57 | 4 | 7.0 | 11.0 | 0.00 | 1.28 | 0.78 | 83 | 1007.2 |
| 20260506154503 | 57 | 20 | 6.0 | 14.0 | 0.00 | 1.28 | 0.78 | 81 | 1007.5 |
| 20260506153603 | 57 | 32 | 6.0 | 13.0 | 0.00 | 1.28 | 0.78 | 82 | 1007.7 |
| 20260506152704 | 57 | 24 | 9.0 | 13.0 | 0.00 | 1.29 | 0.78 | 82 | 1007.7 |
| 20260506151803 | 57 | 19 | 9.0 | 14.0 | 0.00 | 1.29 | 0.78 | 83 | 1007.7 |
| 20260506150903 | 56 | 5 | 9.0 | 16.0 | 0.00 | 1.29 | 0.78 | 85 | 1007.7 |
| 20260506150003 | 55 | 9 | 7.0 | 13.0 | 0.00 | 1.29 | 0.78 | 87 | 1008.0 |
| 20260506145403 | 55 | 19 | 4.0 | 13.0 | 0.00 | 1.30 | 0.78 | 87 | 1008.2 |
| 20260506144503 | 56 | 29 | 4.0 | 6.0 | 0.00 | 1.31 | 0.78 | 92 | 1008.1 |
| 20260506143604 | 55 | 10 | 7.0 | 15.0 | 0.00 | 1.31 | 0.78 | 91 | 1008.1 |
| 20260506142916 | 54 | 15 | 7.0 | 15.0 | 0.00 | 1.31 | 0.78 | 88 | 1008.1 |
| 20260506141804 | 55 | 25 | 8.0 | 13.0 | 0.00 | 1.31 | 0.78 | 91 | 1008.3 |
| 20260506141117 | 56 | 19 | 8.0 | 14.0 | 0.01 | 1.31 | 0.78 | 93 | 1008.2 |
| 20260506140003 | 55 | 355 | 5.0 | 13.0 | 0.09 | 1.31 | 0.78 | 94 | 1008.1 |
| 20260506135403 | 55 | 299 | 4.0 | 10.0 | 0.14 | 1.31 | 0.78 | 94 | 1008.1 |
| 20260506134503 | 54 | 353 | 5.0 | 10.0 | 0.24 | 1.31 | 0.78 | 95 | 1008.1 |
| 20260506133603 | 54 | 23 | 5.0 | 9.0 | 0.28 | 1.32 | 0.78 | 94 | 1008.2 |
| 20260506132703 | 53 | 10 | 5.0 | 9.0 | 0.30 | 1.32 | 0.78 | 94 | 1008.4 |
| 20260506132017 | 52 | 1 | 3.0 | 9.0 | 0.30 | 1.33 | 0.78 | 94 | 1008.4 |
| 20260506130903 | 52 | 276 | 2.0 | 4.0 | 0.28 | 1.31 | 0.76 | 94 | 1008.5 |
| 20260506130003 | 52 | 31 | 5.0 | 9.0 | 0.21 | 1.24 | 0.69 | 93 | 1008.6 |
| 20260506125403 | 52 | 261 | 5.0 | 15.0 | 0.16 | 1.20 | 0.64 | 92 | 1008.2 |
| 20260506124717 | 53 | 256 | 5.0 | 15.0 | 0.07 | 1.11 | 0.55 | 90 | 1008.2 |
| 20260506123603 | 57 | 173 | 5.0 | 10.0 | 0.02 | 1.06 | 0.50 | 84 | 1008.4 |
| 20260506122703 | 59 | 99 | 10.0 | 13.0 | 0.00 | 1.05 | 0.48 | 88 | 1008.2 |
| 20260506121803 | 60 | 98 | 10.0 | 16.0 | 0.00 | 1.05 | 0.48 | 87 | 1008.0 |
| 20260506120903 | 60 | 90 | 7.0 | 19.0 | 0.00 | 1.05 | 0.48 | 86 | 1007.8 |
| 20260506120003 | 60 | 76 | 6.0 | 13.0 | 0.00 | 1.05 | 0.48 | 87 | 1007.8 |
| 20260506115403 | 60 | 78 | 8.0 | 13.0 | 0.00 | 1.06 | 0.48 | 89 | 1007.7 |
| 20260506114717 | 59 | 87 | 8.0 | 12.0 | 0.02 | 1.06 | 0.48 | 88 | 1007.8 |
| 20260506113603 | 58 | 101 | 9.0 | 15.0 | 0.02 | 1.06 | 0.48 | 88 | 1007.9 |
| 20260506112703 | 59 | 101 | 8.0 | 15.0 | 0.02 | 1.06 | 0.48 | 89 | 1007.9 |
| 20260506112016 | 59 | 99 | 8.0 | 16.0 | 0.02 | 1.07 | 0.48 | 89 | 1008.0 |
| 20260506110903 | 58 | 101 | 9.0 | 19.0 | 0.02 | 1.09 | 0.48 | 91 | 1008.0 |
| 20260506110003 | 57 | 91 | 7.0 | 19.0 | 0.02 | 1.11 | 0.48 | 92 | 1008.0 |
| 20260506105403 | 57 | 91 | 8.0 | 16.0 | 0.02 | 1.11 | 0.48 | 94 | 1008.1 |
| 20260506104503 | 56 | 99 | 8.0 | 16.0 | 0.00 | 1.10 | 0.46 | 93 | 1008.1 |
| 20260506103603 | 56 | 93 | 8.0 | 13.0 | 0.00 | 1.11 | 0.46 | 93 | 1008.2 |
| 20260506102703 | 56 | 93 | 7.0 | 19.0 | 0.00 | 1.12 | 0.46 | 93 | 1008.3 |
| 20260506101803 | 56 | 80 | 7.0 | 19.0 | 0.00 | 1.12 | 0.46 | 94 | 1008.2 |
| 20260506100903 | 56 | 89 | 9.0 | 18.0 | 0.00 | 1.12 | 0.46 | 94 | 1008.2 |
| 20260506100004 | 56 | 89 | 10.0 | 16.0 | 0.00 | 1.13 | 0.46 | 94 | 1008.3 |
| 20260506095403 | 56 | 91 | 11.0 | 21.0 | 0.00 | 1.14 | 0.46 | 94 | 1008.2 |
| 20260506094503 | 55 | 88 | 10.0 | 24.0 | 0.00 | 1.16 | 0.46 | 94 | 1008.0 |
| 20260506093603 | 55 | 87 | 11.0 | 19.0 | 0.00 | 1.17 | 0.46 | 94 | 1008.1 |
| 20260506092703 | 55 | 85 | 10.0 | 18.0 | 0.00 | 1.17 | 0.46 | 94 | 1008.1 |
| 20260506091803 | 55 | 80 | 8.0 | 18.0 | 0.00 | 1.18 | 0.46 | 95 | 1008.1 |
| 20260506090903 | 55 | 77 | 7.0 | 17.0 | 0.00 | 1.19 | 0.46 | 95 | 1008.1 |
| 20260506090003 | 55 | 81 | 8.0 | 15.0 | 0.00 | 1.19 | 0.46 | 96 | 1008.0 |
| 20260506085618 | 55 | 83 | 9.0 | 15.0 | 0.00 | 1.19 | 0.46 | 96 | 1008.0 |
| 20260506084717 | 55 | 81 | 10.0 | 18.0 | 0.00 | 1.20 | 0.46 | 96 | 1008.0 |
| 20260506083603 | 55 | 82 | 8.0 | 21.0 | 0.00 | 1.20 | 0.46 | 96 | 1008.1 |
| 20260506082704 | 55 | 86 | 11.0 | 19.0 | 0.00 | 1.20 | 0.46 | 96 | 1008.2 |
| 20260506081803 | 55 | 89 | 11.0 | 21.0 | 0.01 | 1.20 | 0.46 | 96 | 1008.3 |
| 20260506080903 | 55 | 90 | 10.0 | 22.0 | 0.01 | 1.20 | 0.46 | 95 | 1008.2 |
| 20260506080218 | 55 | 87 | 11.0 | 19.0 | 0.01 | 1.20 | 0.46 | 96 | 1008.1 |
| 20260506072703 | 55 | 94 | 8.0 | 14.0 | 0.02 | 1.20 | 0.46 | 100 | 1008.3 |
| 20260506072017 | 54 | 91 | 9.0 | 13.0 | 0.01 | 1.20 | 0.46 | 97 | 1008.3 |
| 20260506070903 | 54 | 84 | 9.0 | 19.0 | 0.01 | 1.20 | 0.46 | 100 | 1008.3 |
| 20260506061803 | 54 | 92 | 6.0 | 13.0 | 0.00 | 1.32 | 0.45 | 100 | 1008.8 |
| 20260506060903 | 54 | 94 | 5.0 | 12.0 | 0.01 | 1.34 | 0.45 | 100 | 1008.7 |
| 20260506051118 | 54 | 92 | 7.0 | 11.0 | 0.01 | 1.41 | 0.45 | 100 | 1008.9 |
| 20260506044503 | 54 | 95 | 7.0 | 12.0 | 0.00 | 1.42 | 0.44 | 100 | 1009.1 |
| 20260506043603 | 54 | 97 | 7.0 | 14.0 | 0.01 | 1.42 | 0.44 | 100 | 1009.1 |
| 20260506042703 | 54 | 100 | 8.0 | 13.0 | 0.01 | 1.42 | 0.44 | 100 | 1009.4 |
| 20260506041803 | 54 | 97 | 9.0 | 16.0 | 0.02 | 1.43 | 0.44 | 100 | 1009.4 |
| 20260506040904 | 54 | 95 | 8.0 | 16.0 | 0.03 | 1.43 | 0.44 | 100 | 1009.4 |
| 20260506040003 | 54 | 99 | 8.0 | 15.0 | 0.19 | 1.43 | 0.44 | 100 | 1009.6 |
| 20260506035403 | 54 | 100 | 8.0 | 15.0 | 0.38 | 1.43 | 0.44 | 100 | 1009.6 |
| 20260506034503 | 54 | 100 | 7.0 | 11.0 | 0.39 | 1.43 | 0.44 | 100 | 1009.4 |
| 20260506033604 | 54 | 96 | 5.0 | 14.0 | 0.40 | 1.43 | 0.43 | 100 | 1009.5 |
| 20260506032703 | 54 | 94 | 4.0 | 14.0 | 0.41 | 1.43 | 0.43 | 100 | 1009.6 |
| 20260506031803 | 54 | 105 | 4.0 | 10.0 | 0.40 | 1.42 | 0.43 | 100 | 1009.7 |
| 20260506030904 | 54 | 89 | 3.0 | 10.0 | 0.39 | 1.40 | 0.41 | 100 | 1009.7 |
| 20260506030003 | 54 | 90 | 1.0 | 10.0 | 0.23 | 1.24 | 0.25 | 100 | 1009.9 |
| 20260506025618 | 54 | 7 | 0.0 | 2.0 | 0.06 | 1.08 | 0.09 | 100 | 1010.1 |
| 20260506024503 | 54 | 5 | 0.0 | 2.0 | 0.03 | 1.05 | 0.06 | 100 | 1010.2 |
| 20260506023603 | 54 | 5 | 0.0 | 1.0 | 0.01 | 1.02 | 0.03 | 100 | 1010.3 |
| 20260506022703 | 54 | 360 | 1.0 | 2.0 | 0.00 | 1.02 | 0.02 | 100 | 1010.4 |
| 20260506021803 | 54 | 217 | 0.0 | 2.0 | 0.00 | 1.02 | 0.02 | 100 | 1010.4 |
| 20260506020903 | 54 | 213 | 0.0 | 1.0 | 0.00 | 1.02 | 0.02 | 100 | 1010.5 |
| 20260506020003 | 54 | 213 | 0.0 | 1.0 | 0.00 | 1.02 | 0.02 | 100 | 1010.7 |
| 20260506015403 | 54 | 0 | 0.0 | 0.0 | 0.00 | 1.02 | 0.02 | 100 | 1010.6 |
| 20260506014503 | 54 | 213 | 0.0 | 1.0 | 0.00 | 1.02 | 0.02 | 100 | 1010.6 |
| 20260506013818 | 54 | 213 | 0.0 | 1.0 | 0.00 | 1.02 | 0.02 | 100 | 1010.6 |
| 20260506012917 | 54 | 213 | 1.0 | 2.0 | 0.00 | 1.02 | 0.02 | 97 | 1010.6 |
| 20260506011803 | 54 | 205 | 1.0 | 3.0 | 0.00 | 1.02 | 0.02 | 97 | 1010.8 |
| 20260506010903 | 54 | 201 | 1.0 | 3.0 | 0.00 | 1.02 | 0.02 | 97 | 1010.9 |
| 20260506010004 | 54 | 160 | 0.0 | 3.0 | 0.00 | 1.02 | 0.02 | 100 | 1011.0 |
| 20260506005617 | 54 | 101 | 0.0 | 1.0 | 0.00 | 1.02 | 0.02 | 100 | 1011.0 |
| 20260506004504 | 54 | 97 | 2.0 | 3.0 | 0.00 | 1.02 | 0.02 | 100 | 1011.2 |
| 20260506003603 | 54 | 95 | 1.0 | 3.0 | 0.00 | 1.02 | 0.02 | 100 | 1011.3 |
| 20260506002704 | 54 | 79 | 1.0 | 2.0 | 0.00 | 1.02 | 0.02 | 100 | 1011.3 |
| 20260506001803 | 54 | 85 | 1.0 | 3.0 | 0.00 | 1.02 | 0.02 | 100 | 1011.4 |
| 20260506001118 | 54 | 135 | 1.0 | 2.0 | 0.00 | 1.02 | 0.02 | 97 | 1011.4 |
| 20260506000004 | 54 | 182 | 1.0 | 2.0 | 0.00 | 1.02 | 0.02 | 97 | 1011.5 |
| 20260505235403 | 54 | 182 | 1.0 | 1.0 | 0.00 | 1.02 | 0.02 | 97 | 1011.6 |
| 20260505234503 | 54 | 182 | 0.0 | 1.0 | 0.00 | 1.02 | 0.02 | 97 | 1011.8 |
| 20260505233603 | 54 | 182 | 0.0 | 1.0 | 0.00 | 1.02 | 0.02 | 97 | 1011.8 |
| 20260505232703 | 54 | 182 | 0.0 | 1.0 | 0.00 | 1.02 | 0.02 | 97 | 1012.0 |
| 20260505231803 | 54 | 0 | 0.0 | 0.0 | 0.01 | 1.02 | 0.02 | 97 | 1011.9 |
| 20260505230904 | 54 | 0 | 0.0 | 0.0 | 0.02 | 1.02 | 0.02 | 97 | 1011.9 |
| 20260505230003 | 54 | 181 | 0.0 | 2.0 | 0.02 | 1.02 | 0.02 | 97 | 1012.1 |
| 20260505225403 | 53 | 180 | 0.0 | 2.0 | 0.02 | 1.02 | 0.02 | 97 | 1012.1 |
| 20260505224504 | 53 | 200 | 1.0 | 2.0 | 0.03 | 1.02 | 0.02 | 97 | 1012.3 |
| 20260505223603 | 54 | 213 | 0.0 | 2.0 | 0.05 | 1.02 | 0.02 | 97 | 1012.3 |
| 20260505222703 | 54 | 213 | 1.0 | 1.0 | 0.08 | 1.02 | 0.02 | 97 | 1012.3 |
| 20260505221804 | 54 | 215 | 0.0 | 2.0 | 0.09 | 1.01 | 0.02 | 97 | 1012.2 |
| 20260505220903 | 53 | 217 | 0.0 | 2.0 | 0.10 | 1.00 | 0.01 | 97 | 1012.3 |
| 20260505220004 | 53 | 217 | 1.0 | 2.0 | 0.09 | 0.99 | 0.00 | 97 | 1012.3 |
| 20260505215618 | 53 | 217 | 1.0 | 2.0 | 0.10 | 0.99 | 0.99 | 97 | 1012.4 |
| 20260505214503 | 53 | 207 | 1.0 | 3.0 | 0.10 | 0.98 | 0.98 | 97 | 1012.4 |
| 20260505213816 | 54 | 201 | 1.0 | 3.0 | 0.09 | 0.97 | 0.97 | 97 | 1012.6 |
| 20260505212703 | 54 | 98 | 1.0 | 4.0 | 0.08 | 0.94 | 0.94 | 97 | 1012.7 |
| 20260505212017 | 54 | 83 | 1.0 | 3.0 | 0.06 | 0.91 | 0.91 | 97 | 1012.8 |
| 20260505210903 | 54 | 100 | 0.0 | 4.0 | 0.04 | 0.90 | 0.90 | 97 | 1012.9 |
| 20260505210218 | 54 | 145 | 0.0 | 2.0 | 0.04 | 0.90 | 0.90 | 97 | 1013.0 |
| 20260505205403 | 54 | 140 | 0.0 | 2.0 | 0.03 | 0.89 | 0.89 | 97 | 1013.0 |
| 20260505204503 | 54 | 130 | 0.0 | 1.0 | 0.02 | 0.88 | 0.88 | 97 | 1013.0 |
| 20260505203603 | 54 | 133 | 1.0 | 1.0 | 0.02 | 0.87 | 0.87 | 97 | 1013.1 |
| 20260505202703 | 54 | 127 | 3.0 | 3.0 | 0.01 | 0.86 | 0.86 | 97 | 1013.1 |
| 20260505202017 | 54 | 115 | 4.0 | 7.0 | 0.02 | 0.86 | 0.86 | 97 | 1013.2 |
| 20260505201116 | 54 | 111 | 2.0 | 8.0 | 0.03 | 0.86 | 0.86 | 97 | 1013.2 |
| 20260505200003 | 54 | 136 | 1.0 | 4.0 | 0.05 | 0.86 | 0.86 | 97 | 1013.1 |
| 20260505195403 | 53 | 144 | 1.0 | 4.0 | 0.09 | 0.86 | 0.86 | 97 | 1013.1 |
| 20260505194503 | 53 | 214 | 1.0 | 2.0 | 0.12 | 0.86 | 0.86 | 97 | 1013.0 |
| 20260505193603 | 53 | 213 | 1.0 | 2.0 | 0.13 | 0.86 | 0.86 | 97 | 1012.9 |
| 20260505192704 | 53 | 213 | 0.0 | 2.0 | 0.12 | 0.85 | 0.85 | 97 | 1013.0 |
| 20260505191803 | 53 | 222 | 1.0 | 2.0 | 0.12 | 0.84 | 0.84 | 97 | 1012.9 |
| 20260505190903 | 53 | 227 | 1.0 | 2.0 | 0.13 | 0.83 | 0.83 | 97 | 1012.8 |
| 20260505190003 | 53 | 211 | 2.0 | 4.0 | 0.14 | 0.81 | 0.81 | 97 | 1012.8 |
| 20260505185618 | 53 | 207 | 2.0 | 4.0 | 0.13 | 0.78 | 0.78 | 97 | 1012.7 |
| 20260505184504 | 53 | 197 | 1.0 | 4.0 | 0.10 | 0.74 | 0.74 | 96 | 1012.5 |
| 20260505182703 | 53 | 47 | 0.0 | 1.0 | 0.09 | 0.73 | 0.73 | 97 | 1012.6 |
| 20260505181803 | 53 | 68 | 0.0 | 2.0 | 0.09 | 0.72 | 0.72 | 97 | 1012.5 |
| 20260505180903 | 53 | 166 | 1.0 | 3.0 | 0.07 | 0.69 | 0.69 | 96 | 1012.6 |
| 20260505180218 | 53 | 179 | 2.0 | 4.0 | 0.10 | 0.68 | 0.69 | 97 | 1012.6 |
| 20260505175403 | 53 | 206 | 2.0 | 4.0 | 0.09 | 0.65 | 0.65 | 97 | 1012.6 |
| 20260505174717 | 52 | 212 | 2.0 | 4.0 | 0.09 | 0.64 | 0.64 | 96 | 1012.5 |
| 20260505173603 | 53 | 203 | 2.0 | 4.0 | 0.11 | 0.64 | 0.64 | 96 | 1012.6 |
| 20260505172703 | 53 | 208 | 2.0 | 5.0 | 0.13 | 0.64 | 0.64 | 96 | 1012.7 |
| 20260505172017 | 53 | 218 | 3.0 | 5.0 | 0.13 | 0.64 | 0.64 | 96 | 1012.5 |